sat.trackr.live / text

‹ back to catalog

STARLINK-32611

NORAD 61976 · 2024-210T

PAYLOAD ACTIVE UNKNOWN

§ Identity

Operator
Country
US
Launch date
2024-11-14
Launch site
AFETR
Launch vehicle
Mass (kg)
RCS (m²)

Purposes: comms

External: N2YO · Heavens-Above · Gunter

§ Orbital elements

Epoch: 2026-05-24T21:18:44.781984Z

Period
94.27 min
Inclination
43.0020°
Eccentricity
0.0001557
Mean motion
15.27603514 rev/d
Perigee alt
481.9 km
Apogee alt
484.0 km
Semi-major
6,861.1 km
B*
5.1820e-4
RAAN
109.4824°
Arg perigee
274.3410°
Mean anomaly
85.7264°
Rev number
8,653

§ Raw data

STARLINK-326111 61976U 24210T   26144.88801831  .00014035  00000+0  51820-3 0  99932 61976  43.0020 109.4824 0001557 274.3410  85.7264 15.27603514 86535

JSON: /api/v1/satellites/61976 · /tle

For live sub-satellite position, see the globe view (requires WebGL).

§ Visibility from observer

Set your observer location to see the next 7 days of passes ≥ 10°. The values pass through the URL so the page stays shareable.

No JS? Fill the form by hand. The geolocation button needs JavaScript.